Satellite-Ground Cal/Val Site Overpasses Predictions

Prediction of Satellite NPP Overpassing Cal/Val Site: Antarctic Dome C

Ground Cal/Val Site Location: Latitude: -75.10, Longitude: 123.35; Satellite-Ground Site NADIR distance within 100 km.

Table of predicted overpasses for the next 14.0 days since TLE Epoch: 5/5/2017
Interval Starting Time Ending Time Minimum Distance Time Minimum Distance (km)
1 05/05/2017 14:54:41 05/05/2017 14:55:09 05/05/2017 14:54:55 20.55
2 05/06/2017 14:35:59 05/06/2017 14:36:14 05/06/2017 14:36:07 86.38
3 05/07/2017 07:37:31 05/07/2017 07:37:58 05/07/2017 07:37:45 34.28
4 05/08/2017 07:18:46 05/08/2017 07:19:05 05/08/2017 07:18:56 75.91
5 05/10/2017 15:01:01 05/10/2017 15:01:25 05/10/2017 15:01:13 57.64
6 05/11/2017 14:42:10 05/11/2017 14:42:35 05/11/2017 14:42:23 51.48
7 05/12/2017 07:43:51 05/12/2017 07:44:12 05/12/2017 07:44:02 69.49
8 05/13/2017 07:24:59 05/13/2017 07:25:26 05/13/2017 07:25:12 38.46
9 05/15/2017 15:07:25 05/15/2017 15:07:33 05/15/2017 15:07:29 95.34
10 05/16/2017 14:48:25 05/16/2017 14:48:54 05/16/2017 14:48:40 15.86


NCC Satellite Cal/Val Overpasses Prediction Service
